Location: Warszawa
(52.2500°N, 21.0000°E)
Time: 06:55:15
(UTC+02:00)

Tiros 1 despin weight - Visible Passes

Search period start: 23 September 2023 00:00
Search period end: 03 October 2023 00:00
Orbit: 585 x 629 km, 48.2° (Epoch: 22 September)

Date Brightness Start Highest point End Pass type
(mag) Time Alt. Az. Time Alt. Az. Time Alt. Az.
23 Sep ? 04:40:11 20° SSW 04:40:11 20° SSW 04:42:56 10° SSE visible
24 Sep ? 04:53:23 13° SSW 04:53:23 13° SSW 04:54:29 10° S visible
29 Sep ? 20:02:08 10° S 20:03:26 14° SSE 20:03:26 14° SSE visible
30 Sep ? 20:13:52 10° SSW 20:16:19 21° S 20:16:19 21° S visible
01 Oct ? 18:48:46 10° SSE 18:49:42 11° SE 18:50:38 10° SE visible
01 Oct ? 20:26:05 10° SW 20:29:01 28° S 20:29:01 28° S visible
02 Oct ? 18:59:19 10° S 19:02:12 17° SE 19:04:46 11° ESE visible
02 Oct ? 20:38:33 10° SW 20:41:36 33° SSW 20:41:36 33° SSW visible
